Regional Weather Roundup
Issued by NWS Upton, NY

Home | Current Version | Previous Version | Text Only | Print | Product List | Glossary On
Versions: 1 2 3 4 5 6 7 8 9 10 11 12 13 14 15 16 17 18 19 20 21 22 23 24 25 26 27 28 29 30 31 32 33 34 35 36 37 38 39 40 41 42 43 44 45 46 47 48 49 50
000
ASUS41 KOKX 291405
RWROKX

REGIONAL WEATHER ROUNDUP
NATIONAL WEATHER SERVICE NEW YORK NY
1000 AM EDT FRI AUG 29 2014

NOTE: "FAIR" INDICATES FEW OR NO CLOUDS BELOW 12,000 FEET WITH NO
SIGNIFICANT WEATHER AND/OR OBSTRUCTIONS TO VISIBILITY.

NYZ071-072-176-178-NJZ106-104-291500-
NEW YORK CITY METRO AREA


CITY           SKY/WX    TMP DP  RH WIND       PRES   REMARKS
CENTRAL PARK   SUNNY     69  52  54 MISG      30.22R
LAGUARDIA APRT MOSUNNY   70  51  51 NE8       30.19R
KENNEDY INTL   MOSUNNY   72  50  45 N10       30.19R
NEWARK/LIBERTY MOSUNNY   71  50  47 N7        30.19R
BRNX BOT. GARD   N/A     70  52  52 N9        30.19F
TETERBORO      SUNNY     71  50  47 N8        30.19R
$$

NYZ177-179-078>081-291500-
LONG ISLAND NEW YORK

CITY           SKY/WX    TMP DP  RH WIND       PRES   REMARKS
FARMINGDALE    MOSUNNY   69  52  54 NE12      30.19R
ISLIP          MOSUNNY   71  52  50 N10       30.17R
SHIRLEY        SUNNY     71  52  50 N10       30.19R
WESTHAMPTON    SUNNY     71  51  49 N15       30.19R
MONTAUK POINT    N/A     68  54  60 N7        30.19R
$$

NYZ052-065-067-291500-
HUDSON VALLEY

CITY           SKY/WX    TMP DP  RH WIND       PRES   REMARKS
WHITE PLAINS   MOSUNNY   69  51  52 N8        30.19R
NEWBURGH       MOSUNNY  N/A N/A N/A CALM      30.22R
MONTGOMERY     SUNNY     66  51  58 CALM      30.21R
POUGHKEEPSIE   SUNNY     67  52  58 N7        30.20R
ALBANY         MOSUNNY   67  53  61 N5        30.22R
$$

NJZ001-105-106-008-010-013-015-019>022-104-291500-
NEW JERSEY

CITY           SKY/WX    TMP DP  RH WIND       PRES   REMARKS
NEWARK/LIBERTY MOSUNNY   71  50  47 N7        30.19R
TETERBORO      SUNNY     71  50  47 N8        30.19R
CALDWELL       SUNNY     70  49  47 VRB3      30.20R
MORRISTOWN     MOSUNNY   70  54  56 N3        30.20R
SOMERVILLE     SUNNY     71  51  49 N6        30.18S
LINDEN         FAIR      75  53  45 N7        30.20S
SUSSEX         LGT RAIN  68  54  60 E3        30.21R
ANDOVER          N/A     65  54  67 VRB3      30.21S
TRENTON        MOSUNNY   70  51  51 VRB7      30.19S
MILLVILLE      SUNNY     70  54  56 NE8       30.19R
ATLANTIC CITY  MOSUNNY   69  57  65 NE7       30.18R
WRIGHTSTOWN    MOSUNNY   67  55  66 N7        30.17R
TOMS RIVER     PTSUNNY   68  54  60 N5        30.19S
BELMAR         PTSUNNY   70  54  56 N7        30.19R
$$

PAZ047>061-062-071-291500-
EASTERN PENNSYLVANIA

CITY           SKY/WX    TMP DP  RH WIND       PRES   REMARKS
PHILADELPHIA   PTSUNNY   72  52  49 NE7       30.19S
ALLENTOWN      SUNNY     66  53  63 N5        30.21S
SCRANTON       SUNNY     61  50  67 CALM      30.23S
$$

CTZ002-004>006-009-010-012-RIZ004-006-007-MAZ004-011-015-291500-
SOUTHERN NEW ENGLAND
 IN CT

CITY           SKY/WX    TMP DP  RH WIND       PRES   REMARKS
BRADLEY INTL   MOSUNNY   68  52  56 VRB6      30.18R
HARTFORD       SUNNY     67  52  58 N10       30.19R
DANBURY        SUNNY     67  52  58 NE8       30.21R
WTRBRY/OXFORD  SUNNY     66  50  55 NE12      30.21R
BRIDGEPORT     SUNNY     71  53  52 N8        30.18R
MERIDEN        SUNNY     71  50  47 N9        30.19R
NEW HAVEN      MOSUNNY   72  51  47 N12       30.18R
CHESTER        FAIR      66  52  59 N6        30.19R
GROTON         SUNNY     69  54  58 N8        30.17R
WILLIMANTIC    SUNNY     68  52  56 NW5       30.18R

 IN RI

CITY           SKY/WX    TMP DP  RH WIND       PRES   REMARKS
PROVIDENCE     MOSUNNY   71  51  49 N8        30.17R
BLOCK ISLAND   SUNNY     66  54  63 NE10      30.17R
WESTERLY       SUNNY     70  52  52 NE6       30.17R

 IN MA

CITY           SKY/WX    TMP DP  RH WIND       PRES   REMARKS
BOSTON         MOSUNNY   70  52  52 NE12      30.16R
WORCESTER      SUNNY     66  48  52 CALM      30.19R
WESTFIELD      SUNNY     69  53  56 VRB7      30.19R
PROVINCETOWN   SUNNY     68  55  64 N13       30.17R
NANTUCKET      SUNNY     70  54  56 N10       30.14R
$$

ANZ330-335-338-340-345-350-353-355-291500-
COASTAL MARINE OBSERVATIONS


STATION/POSITION TIME  SKY/WX   TEMP    WIND        PRES    VSBY  WAVE
                                AIR SEA DIR/SP/G                  HT/PER
                 (UTC)          (F)     (DEG/KT/KT) (MB)    (MI)  (FT/S)
NY HARB ENTRANCE NOT AVBL
4S FIRE IS       NOT AVBL
23SW MTP         1400                                 N/A           4/11
HUDSON CANYON    1400            69 72   30/ 12/ 14 1020.8          4/10
EXECUTION ROCKS  1400            72 74   50/  6/  8   N/A
WESTERN LI SOUND 1400            68      60/  4/  8   N/A           1
CENTRAL LI SOUND 1300            66 71   20/ 10/ 12   N/A           1/ 2
EASTERN LI SOUND 1300            69 69   30/ 12/ 16   N/A
ROBBINS REEF     1400            67     360/ 10/ 12   N/A
$$


>>>>>>>>>>>>>>>>>>>>>>>>>>>> KEY <<<<<<<<<<<<<<<<<<<<<<<<<<<
>                                                          <
>     SKY/WX - SKY CONDITION/PRESENT WEATHER               <
>     TMP    - TEMPERATURE IN FAHRENHEIT                   <
>     DP     - DEWPOINT IN FAHRENHEIT                      <
>     RH     - RELATIVE HUMIDITY IN PERCENT                <
>     WIND   - DIRECTION AND SPEED IN MPH                  <
>     PRES   - MEAN SEA LEVEL PRESSURE IN INCHES OF HG     <
>     WCI    - WIND CHILL INDEX                            <
>     VSB    - VISIBILITY IN MILES                         <
>     HX     - HEAT INDEX                                  <
>     TC     - TEMPERATURE IN CELSIUS                      <
>     VRB    - VARIABLE WIND DIRECTION                     <
>                                                          <
>>>>>>>>>>>>>>>>>>>>>>>>>>>> KEY <<<<<<<<<<<<<<<<<<<<<<<<<<<




USA.gov is the U.S. government's official web portal to all federal, state and local government web resources and services.